Location: Borojevi?i
(45.0486°N, 16.2297°E)
Time: 21:29:35
(UTC+00:00)

Cosmos 1763 Rocket - Pass Details

Date: 08 August 2020
Orbit: 732 x 780 km, 74.0° (Epoch: 21 September)

Event Time Altitude Azimuth Distance (km) Brightness Sun altitude
Rises 20:42:17 0° 341° (NNW) 3,273 8.1 -21.5°
Reaches altitude 10° 20:44:43 10° 345° (NNW) 2,343 7.0 -21.8°
Maximum altitude 20:50:00 61° 66° (ENE) 888 3.7 -22.3°
Enters shadow 20:51:06 49° 114° (ESE) 997 3.7 -22.4°
